Tracking 32964 objects as of 20-Jan-2026
HD Live streaming from Space Station
objects crossing your sky now

STARLINK-4256

Track STARLINK-4256 now!
10-day predictions
STARLINK-4256 is classified as:


NORAD ID: 52994
Int'l Code: 2022-076J
Perigee: 545.8 km
Apogee: 548.0 km
Inclination: 53.2 °
Period: 95.4 minutes
Semi major axis: 6917 km
RCS: Unknown
Launch date: July 7, 2022
Source: United States (US)
Launch site: AIR FORCE EASTERN TEST RANGE (AFETR)
Your satellite tracking list
Your tracking list is empty




NASA's NSSDC Master Catalog

Two Line Element Set (TLE):
1 52994U 22076J   26019.94773515  .00000695  00000-0  61791-4 0  9993
2 52994  53.2183 312.9349 0001617  91.5958 268.5219 15.08836047195488
Source of the keplerian elements: AFSPC